www.pogodaiklimat.ru

Погода и климат >> Архив погоды >> Норвегия >> Фет и Эйдфьорд


ПОГОДА в Фете и Эйдфьорде

  • Прогноз погоды в Фете и Эйдфьорде
  • Монитор погоды в Фете и Эйдфьорде

АРХИВ ПОГОДЫ в Фете и Эйдфьорде

Время (UTC), дата Ветер
(напр.,м/с)
 
Видим.   Явления Облачность Т
(С)
Тd
(С)
f
(%)
Тe
(С)
Тes
(С)
Комфортность P
(гПа)
Po
(гПа)
Тmin
(С)
Tmax
(С)
R
(мм)
R24
(мм)
S
(см)
07 15.08 В 4-6
{7}
н/о н/о +8.3 +3.4 71 +5 +5 1007.6 922.6
08 15.08 В 5-9
{9}
н/о н/о +10.7 +3.5 61 +8 +8 1006.5 922.3
09 15.08 В 6-9
{9}
н/о н/о +13.2 +2.5 48 +11 +11 1005.3 921.9
10 15.08 В 6-9
{10}
н/о н/о +13.7 +1.7 44 +12 +12 1004.7 921.5
11 15.08 В 4-9
{9}
н/о н/о +14.4 -2.5 31 +13 +13 1004.2 921.2
12 15.08 В 4-7
{10}
н/о н/о +15.7 -1.8 30 +15 +15 1003.8 921.2
13 15.08 В 2-4
{7}
н/о н/о +16.9 +3.2 40 +17 +17 1002.9 920.7
14 15.08 ЮВ 5-9
{9}
н/о н/о +16.4 +4.8 46 +16 +16 1002.9 920.6
15 15.08 ЮВ 5-9
{10}
н/о н/о +14.5 +6.1 57 +13 +13 1003.7 920.8
16 15.08 В 2-6
{12}
н/о н/о +13.9 +6.3 60 +14 +14 1004.0 920.9
17 15.08 СВ 7-11
{11}
н/о н/о +12.1 +6.4 68 +9 +9 1004.6 921.0
18 15.08 СВ 6-10
{12}
н/о н/о +11.6 +6.5 71 +9 +9 1004.8 921.0 +6.3 +17.2
19 15.08 В 4-7
{9}
н/о н/о +10.5 +7.7 83 +8 +8 1005.2 921.0
20 15.08 СВ 5-8
{10}
н/о н/о +10.9 +7.4 79 +8 +8 1004.9 920.9
21 15.08 В 6-9
{10}
н/о н/о +11.2 +7.1 76 +8 +8 1004.6 920.7
22 15.08 СВ 5-7
{10}
н/о н/о +11.5 +7.6 77 +9 +9 1004.8 920.9
23 15.08 В 3-5
{6}
н/о н/о +11.1 +8.3 83 +9 +9 1004.5 920.6
00 16.08 В 2-6
{10}
н/о н/о +11.2 +8.8 85 +10 +10 1004.0 920.2
01 16.08 ЮЗ 1-2
{4}
н/о н/о +10.0 +9.2 95 +9 +9 1004.8 920.5
02 16.08 СЗ 3-6
{7}
н/о н/о +9.8 +9 +9 1005.2 920.8
03 16.08 СЗ 1-2
{3}
н/о н/о +9.8 +10 +10 1005.6 921.2
04 16.08 штиль 0-1
{3}
н/о н/о +9.8 +10 +10 1005.8 921.4
05 16.08 штиль 0-1
{1}
н/о н/о +10.1 +11 +11 1006.2 921.8
06 16.08 штиль 0-1
{7}
н/о н/о +10.1 +11 +11 1006.2 921.8 +9.8 +11.8
07 16.08 З 3-4
{4}
н/о н/о +10.2 +9 +9 1006.7 922.3
08 16.08 З 3-4
{6}
н/о н/о +10.1 +10.1 100 +8 +8 1007.0 922.6
09 16.08 СЗ 4-5
{5}
н/о н/о +10.2 +9.6 96 +7 +7 1007.2 922.7
10 16.08 СЗ 4-6
{6}
н/о н/о +10.5 +9.3 92 +8 +8 1007.3 923.0
11 16.08 СЗ 5-7
{7}
н/о н/о +11.2 +8.6 84 +8 +8 1007.4 923.2
12 16.08 З 4-6
{7}
н/о н/о +12.1 +8.2 77 +10 +10 1007.0 923.2
13 16.08 З 3-5
{6}
н/о н/о +12.9 +8.2 73 +12 +12 1006.1 922.6
14 16.08 СЗ 4-6
{7}
н/о н/о +11.6 +7.7 77 +9 +9 1006.2 922.3
15 16.08 СЗ 3-5
{7}
н/о н/о +11.0 +7.7 80 +9 +9 1006.3 922.2
16 16.08 СЗ 2-3
{4}
н/о н/о +11.2 +7.5 78 +10 +10 1005.9 921.8
17 16.08 З 1-2
{4}
н/о н/о +10.5 +7.6 82 +10 +10 1005.8 921.6
18 16.08 штиль 0-1
{7}
н/о н/о +10.3 +7.4 82 +10 +10 1005.2 921.0 +9.9 +13.4
19 16.08 ЮВ 2-3
{3}
н/о н/о +10.1 +8.0 87 +9 +9 1005.2 920.9
20 16.08 ЮЗ 2-3
{3}
н/о н/о +9.5 +8.4 93 +8 +8 1005.4 920.9
21 16.08 З 1-2
{2}
н/о н/о +9.1 +8.5 96 +8 +8 1005.3 920.7
22 16.08 штиль 0
{2}
н/о н/о +8.6 +8.6 100 +8 +8 1004.7 920.0
23 16.08 ЮВ 3-4
{4}
н/о н/о +8.8 +8.8 100 +6 +6 1004.2 919.7
00 17.08 В 5-8
{8}
н/о н/о +10.2 +6.7 79 +7 +7 1002.9 918.8
01 17.08 В 4-9
{9}
н/о н/о +10.4 +6.4 76 +8 +8 1002.1 918.2
02 17.08 В 7-10
{10}
н/о н/о +10.6 +5.8 72 +7 +7 1001.1 917.3
03 17.08 В 6-10
{10}
н/о н/о +9.8 +6.5 80 +6 +6 1000.6 916.6
04 17.08 В 4-7
{10}
н/о н/о +9.6 +6.9 83 +7 +7 999.8 915.8
05 17.08 В 7-10
{11}
н/о н/о +9.8 +7.4 85 +6 +6 998.8 915.0
06 17.08 В 5-9
{11}
н/о н/о +10.1 +7.9 86 +7 +7 998.0 914.3 +8.4 +10.7
07 17.08 В 6-8
{9}
н/о н/о +10.6 +8.5 87 +7 +7 997.1 913.6
08 17.08 В 7-9
{10}
н/о н/о +11.7 +9.8 88 +8 +8 995.6 912.6
09 17.08 В 5-8
{9}
н/о н/о +12.3 +10.0 86 +10 +10 994.6 911.9
10 17.08 В 8-13
{13}
н/о н/о +15.4 +11.0 75 +13 +13 993.1 911.3
11 17.08 В 7-13
{13}
н/о н/о +16.6 +12.0 74 +15 +15 992.7 911.3
12 17.08 В 5-9
{13}
н/о н/о +16.4 +10.9 70 +15 +15 992.6 911.1
13 17.08 ЮЗ 5-11
{12}
н/о н/о +15.5 +9.2 66 +14 +14 993.6 911.8
14 17.08 ЮЗ 3-6
{9}
н/о н/о +15.9 +7.4 57 +16 +16 993.6 911.9
15 17.08 ЮЗ 4-7
{14}
н/о н/о +14.7 +7.3 61 +14 +14 994.6 912.5
16 17.08 ЮЗ 4-9
{9}
н/о н/о +13.5 +6.6 63 +12 +12 995.5 913.0
17 17.08 ЮЗ 2-5
{8}
н/о н/о +13.5 +6.6 63 +13 +13 995.4 912.9
18 17.08 ЮЗ 3-5
{14}
н/о н/о +13.1 +6.5 64 +12 +12 995.7 913.1 +10.1 +17.4
19 17.08 СВ 1-1
{5}
н/о н/о +11.3 +6.7 73 +11 +11 996.5 913.3
20 17.08 Ю 2-6
{6}
н/о н/о +10.6 +7.1 79 +9 +9 997.4 913.9
21 17.08 ЮВ 1-1
{3}
н/о н/о +9.0 +7.9 93 +8 +8 998.3 914.3
22 17.08 ЮЗ 2-3
{3}
н/о н/о +9.4 +7.5 88 +8 +8 999.0 915.1
23 17.08 СВ 1-2
{5}
н/о н/о +7.7 +7.0 95 +7 +7 1000.1 915.6
00 18.08 В 1-2
{6}
н/о н/о +7.1 +6.5 96 +6 +6 1000.5 915.8
01 18.08 штиль 0-1
{2}
н/о н/о +6.5 +5.9 96 +5 +5 1001.0 916.0
02 18.08 В 1-2
{2}
н/о н/о +6.7 +6.6 99 +5 +5 1001.2 916.4
03 18.08 В 1-2
{3}
н/о н/о +5.9 +5.3 96 +5 +5 1001.3 916.2
04 18.08 В 2-3
{3}
н/о н/о +5.4 +5.0 97 +3 +3 1001.5 916.2
05 18.08 С 2-4
{4}
н/о н/о +6.0 +5.4 96 +3 +3 1001.2 916.1
06 18.08 Ю 1-2
{4}
н/о н/о +8.3 +5.2 81 +8 +8 1000.6 916.2 +5.1 +13.1
07 18.08 В 4-5
{5}
н/о н/о +8.9 +3.9 71 +6 +6 1000.1 915.9
08 18.08 В 2-2
{7}
н/о н/о +10.9 +5.0 67 +10 +10 999.9 916.3
09 18.08 Ю 3-6
{6}
н/о н/о +13.0 +1.7 46 +12 +12 999.3 916.4
10 18.08 ЮВ 3-5
{8}
н/о н/о +14.8 +2.7 44 +14 +14 998.7 916.3
11 18.08 ЮВ 3-6
{6}
н/о н/о +13.5 +1.8 45 +13 +13 998.7 915.9
12 18.08 В 4-8
{8}
н/о н/о +14.2 +5.6 56 +13 +13 998.4 915.9
13 18.08 ЮВ 4-7
{9}
н/о н/о +15.5 +3.0 43 +15 +15 997.9 915.8
14 18.08 В 5-7
{10}
н/о н/о +13.5 +4.4 54 +12 +12 998.2 915.4
15 18.08 ЮЗ 3-5
{8}
н/о н/о +9.8 +6.3 79 +8 +8 1000.1 916.2
16 18.08 ЮЗ 2-4
{4}
н/о н/о +10.4 +6.7 78 +9 +9 999.6 915.9
17 18.08 В 3-4
{6}
н/о н/о +10.7 +6.3 74 +9 +9 998.8 915.2
18 18.08 В 3-4
{10}
н/о н/о +10.5 +7.0 79 +9 +9 998.7 915.1 +7.9 +15.5
19 18.08 В 3-5
{7}
н/о н/о +10.5 +6.5 76 +9 +9 998.5 914.9
20 18.08 В 3-6
{7}
н/о н/о +10.0 +5.4 73 +8 +8 998.5 914.7
21 18.08 В 2-7
{8}
н/о н/о +9.3 +4.3 71 +8 +8 998.5 914.5
22 18.08 В 5-8
{8}
н/о н/о +9.4 +5.0 74 +6 +6 998.8 914.9
23 18.08 В 3-5
{8}
н/о н/о +9.4 +5.2 75 +7 +7 998.7 914.8
00 19.08 В 3-4
{8}
н/о н/о +7.9 +5.4 84 +5 +5 999.2 914.8
01 19.08 В 3-5
{5}
н/о н/о +8.7 +5.5 80 +6 +6 998.8 914.7
02 19.08 В 3-5
{5}
н/о н/о +8.3 +4.1 75 +6 +6 998.7 914.5
03 19.08 В 3-4
{5}
н/о н/о +7.8 +5.1 83 +5 +5 998.7 914.3
04 19.08 В 3-4
{6}
н/о н/о +7.9 +5.5 85 +5 +5 998.9 914.6
05 19.08 В 3-5
{5}
н/о н/о +8.1 +6.4 89 +5 +5 998.5 914.3
06 19.08 ЮВ 2-4
{7}
н/о н/о +10.0 +5.8 75 +9 +9 998.2 914.5 +7.5 +10.7
07 19.08 Ю 2-5
{5}
н/о н/о +10.4 +5.0 69 +9 +9 998.4 914.8
08 19.08 С 1-2
{7}
н/о н/о +8.3 +6.1 86 +8 +8 999.6 915.3
09 19.08 ЮВ 3-7
{7}
н/о н/о +7.7 +4.5 80 +5 +5 1000.2 915.6
10 19.08 Ю 3-7
{7}
н/о н/о +12.1 +5.1 62 +11 +11 999.2 916.0
11 19.08 З 1-4
{7}
н/о н/о +10.8 +6.6 75 +11 +11 1000.6 916.9
12 19.08 З 2-3
{7}
н/о н/о +11.0 +6.6 74 +10 +10 1001.1 917.4
13 19.08 СЗ 2-3
{6}
н/о н/о +11.3 +7.4 77 +10 +10 1001.7 918.1
14 19.08 З 2-4
{5}
н/о н/о +9.8 +8.7 93 +8 +8 1003.1 918.9
15 19.08 З 2-4
{5}
н/о н/о +9.1 +8.7 97 +7 +7 1004.0 919.5
16 19.08 СЗ 2-4
{4}
н/о н/о +9.8 +8.6 92 +8 +8 1004.1 919.9
17 19.08 СЗ 3-4
{5}
н/о н/о +8.7 +7.6 93 +6 +6 1004.9 920.2
18 19.08 штиль 0-1
{6}
н/о н/о +8.6 +8.2 97 +8 +8 1005.3 920.6 +7.6 +12.8
19 19.08 ЮВ 2-3
{3}
н/о н/о +8.2 +7.9 98 +6 +6 1006.0 921.1
20 19.08 В 1-2
{2}
н/о н/о +7.1 +6.7 97 +6 +6 1006.9 921.6
21 19.08 штиль 0-1
{3}
н/о н/о +5.3 +4.9 97 +4 +4 1007.9 922.0
22 19.08 СВ 1-2
{2}
н/о н/о +7.0 +6.7 98 +6 +6 1007.6 922.2
23 19.08 штиль 0-2
{2}
н/о н/о +6.8 +6.5 98 +6 +6 1007.8 922.4
00 20.08 В 1-1
{3}
н/о н/о +5.8 +5.7 99 +4 +4 1008.4 922.6
01 20.08 ЮВ 1-2
{2}
н/о н/о +6.4 +6.4 100 +5 +5 1008.3 922.7
02 20.08 В 1-2
{3}
н/о н/о +7.4 +7.0 97 +6 +6 1008.2 922.9
03 20.08 ЮЗ 1-2
{3}
н/о н/о +6.9 +6.2 95 +6 +6 1008.5 923.1
04 20.08 штиль 0-1
{2}
н/о н/о +6.0 +5.6 97 +5 +5 1009.2 923.4
05 20.08 штиль 0-2
{2}
н/о н/о +6.1 +6.0 99 +5 +5 1009.4 923.7
06 20.08 СЗ 2-3
{3}
н/о н/о +7.8 +7.7 99 +6 +6 1009.7 924.4 +5.3 +8.7
07 20.08 ЮЗ 1-2
{4}
н/о н/о +8.2 +7.9 98 +7 +7 1010.0 924.8
08 20.08 ЮЗ 1-2
{2}
н/о н/о +9.6 +7.4 86 +9 +9 1010.0 925.2
09 20.08 ЮЗ 3-5
{7}
н/о н/о +11.7 +5.4 65 +10 +10 1009.5 925.3
10 20.08 ЮЗ 4-9
{9}
н/о н/о +12.0 +5.4 64 +10 +10 1009.9 925.8
11 20.08 ЮЗ 5-7
{10}
н/о н/о +12.8 +5.3 60 +11 +11 1010.0 926.1
12 20.08 СЗ 3-5
{10}
н/о н/о +10.4 +8.5 88 +8 +8 1011.5 926.8
13 20.08 СЗ 4-6
{6}
н/о н/о +11.2 +8.4 83 +9 +9 1011.7 927.2
14 20.08 З 5-6
{7}
н/о н/о +10.2 +8.5 89 +7 +7 1012.6 927.8
15 20.08 З 4-5
{7}
н/о н/о +10.2 +8.3 88 +7 +7 1013.0 928.1
16 20.08 З 3-5
{6}
н/о н/о +9.5 +9.1 97 +7 +7 1014.0 928.8
17 20.08 З 3-4
{5}
н/о н/о +8.8 +8.7 99 +6 +6 1014.7 929.2
18 20.08 З 4-5
{7}
н/о н/о +8.5 +8.1 97 +5 +5 1015.3 929.8 +7.8 +13.6
19 20.08 З 3-4
{6}
н/о н/о +8.1 +7.8 98 +5 +5 1016.6 930.8
20 20.08 З 3-4
{4}
н/о н/о +7.6 +7.5 99 +5 +5 1017.3 931.3
21 20.08 З 1-2
{4}
н/о н/о +7.3 +7.3 100 +6 +6 1017.8 931.7
22 20.08 З 1-3
{3}
н/о н/о +7.1 +7.1 100 +6 +6 1018.1 931.9
23 20.08 З 2-3
{4}
н/о н/о +7.0 +7.0 100 +5 +5 1018.7 932.4
00 21.08 З 3-5
{6}
н/о н/о +7.0 +7.0 100 +4 +4 1018.9 932.6
01 21.08 З 3-5
{5}
н/о н/о +7.1 +7.0 99 +4 +4 1019.2 932.9
02 21.08 З 2-3
{6}
н/о н/о +6.8 +6.5 98 +4 +4 1019.9 933.4
03 21.08 З 2-3
{5}
н/о н/о +6.7 +6.6 99 +4 +4 1020.3 933.8
04 21.08 З 3-4
{4}
н/о н/о +6.7 +6.6 99 +3 +3 1020.6 934.0
05 21.08 З 3-4
{4}
н/о н/о +6.4 +6.4 100 +3 +3 1021.3 934.6
06 21.08 З 2-4
{6}
н/о н/о +6.1 +6.0 99 +3 +3 1022.0 935.2 +6.1 +8.5
07 21.08 СЗ 1-2
{3}
н/о н/о +7.1 +5.6 90 +6 +6 1022.2 935.6
08 21.08 З 2-3
{4}
н/о н/о +7.8 +4.6 80 +6 +6 1022.4 936.0
09 21.08 З 3-5
{6}
н/о н/о +8.8 +4.2 73 +6 +6 1022.3 936.2
10 21.08 З 4-5
{6}
н/о н/о +10.2 +3.0 61 +8 +8 1021.9 936.3
11 21.08 З 3-5
{7}
н/о н/о +10.1 +3.6 64 +8 +8 1022.1 936.4
12 21.08 З 3-5
{7}
н/о н/о +10.9 +3.9 62 +9 +9 1022.0 936.6
13 21.08 З 3-5
{6}
н/о н/о +10.5 +3.3 61 +9 +9 1022.1 936.5
14 21.08 З 4-5
{6}
н/о н/о +11.1 +3.9 61 +9 +9 1022.0 936.6
15 21.08 З 4-6
{6}
н/о н/о +10.2 +3.7 64 +8 +8 1022.2 936.6
16 21.08 З 3-4
{5}
н/о н/о +10.1 +4.1 66 +8 +8 1022.4 936.7
17 21.08 З 1-3
{5}
н/о н/о +10.2 +4.4 67 +10 +10 1022.0 936.4
18 21.08 З 1-1
{6}
н/о н/о +9.6 +4.2 69 +9 +9 1022.1 936.3 +6.0 +11.6
19 21.08 В 1-2
{2}
н/о н/о +5.6 +3.3 85 +4 +4 1023.3 936.2
20 21.08 В 1-3
{3}
н/о н/о +3.4 +1.6 88 +2 +2 1024.0 936.2
21 21.08 В 2-4
{4}
н/о н/о +2.8 +1.9 94 -1 -1 1024.3 936.3
22 21.08 ЮВ 3-4
{5}
н/о н/о +3.1 +1.8 91 -1 -1 1024.1 936.2
23 21.08 В 1-3
{4}
н/о н/о +2.4 +1.1 91 +1 +1 1024.2 936.0
00 22.08 В 2-4
{5}
н/о н/о +2.9 +1.4 90 -0 -0 1023.8 935.8
01 22.08 ЮВ 2-4
{4}
н/о н/о +3.8 +1.8 87 +1 +1 1022.7 935.2
02 22.08 В 4-6
{6}
н/о н/о +5.5 +2.5 81 +2 +2 1021.3 934.3
03 22.08 В 4-6
{10}
н/о н/о +6.6 +2.7 76 +3 +3 1020.4 933.9
04 22.08 В 4-6
{7}
н/о н/о +7.5 +4.3 80 +4 +4 1019.2 933.0
05 22.08 В 5-8
{8}
н/о н/о +8.5 +4.9 78 +5 +5 1018.3 932.5

 

Местоположение метеостанции Фет и Эйдфьорд (Норвегия): широта 60.41 долгота 7.28 высота над уровнем моря 735 м.

В архиве по умолчанию представлена погода в Фете и Эйдфьорде за последнюю неделю. Архивные данные за месяц целиком и за предыдущие месяцы, начиная с января 2011 года, Вы можете получить, выбрав интересующий диапазон дат из раскрывающегося списка и нажав кнопку "Ввод!".


*Определитесь, кто Вы:
робот инопланетянин человек

Внимание! Время в таблицах - всемирное. Для получения местного времени необходимо прибавить поправку, которая равна 1 ч.

Смотрите также архив погоды в соседних городах и на ближайших метеорологических станциях:

Погода на Финсеватнете (Норвегия) (25 км)
Погода в Мидтстове (Норвегия) (28 км)
Погода в Сандхау (Норвегия) (28 км)
Погода в Клеваватнете (Норвегия) (35 км)
Погода в Улленсванге (Норвегия) (36 км)
Погода в Мьолфелле (Норвегия) (37 км)
Погода в Гейло (Норвегия) (52 км)
Погода в Воссевангене (Норвегия) (53 км)
Погода на Квамсое (Норвегия) (56 км)
Погода в Булкене (Норвегия) (64 км)

Пояснения к столбцам:

Ветер - указаны скорость ветра в м/с - средняя за 10 мин, порывы в срок и между сроками (в фигурных скобках) и направление, откуда дует ветер: С - северный, СВ - северо-восточный, В - восточный, ЮВ - юго-восточный, Ю - южный, ЮЗ - юго-западный, З - западный, СЗ - северо-западный.
Видимость - горизонтальная дальность видимости в метрах или километрах. При видимости от 1 до 10 км при отсутствии осадков обычно наблюдается дымка, при ухудшении видимости до 1 км и менее - туман. В сухую погоду видимость может ухудшаться дымом, пылью или мглою.
Явления - указаны атмосферные явления, наблюдавшиеся в срок или в последний час перед сроком; фигурными скобками обозначены явления, наблюдавшиеся между сроками (за 1-3 часа до срока); квадратными скобками обозначены град или гололедные отложения с указанием их диаметра в мм.
Облачность - указаны через наклонную черту общая и нижняя облачность в баллах и высота нижней границы облаков в метрах; квадратными скобками обозначены формы облаков: Ci - перистые, Cs - перисто-слоистые, Cc - перисто-кучевые, Ac - высококучевые, As - высокослоистые, Sc - слоисто-кучевые, Ns - слоисто-дождевые, Cu - кучевые, Cb - кучево-дождевые. Подробнее классификацию облаков см. в Атласе облаков (PDF).
T - Температура воздуха - температура, измеренная на высоте 2 м над землей.
Td - Температура точки росы - температура, при понижении до которой содержащийся в воздухе водяной пар достигнет насыщения.
f - Относительная влажность воздуха - влажноcть воздуха, измеренная на высоте 2 м над землей.
Te - Эффективная температура - температура, которую ощущает одетый по сезону человек в тени. Характеристика душности погоды. При расчете учитывается влияние влажности воздуха и скорости ветра на теплоощущения человека.
Tes - Эффективная температура на солнце - температура, которую ощущает человек, с поправкой на солнечный нагрев. Характеристика знойности погоды. Зависит от высоты солнца над горизонтом, облачности и скорости ветра. Ночью, в пасмурную погоду, а также при ветре 12 м/с и более поправка равна нулю.
P - Атмосферное давление - приведенное к уровню моря атмосферное давление.
Po - Атмосферное давление - измеренное на уровне метеостанции атмосферное давление.
Tmin - Минимальная температура - минимум температуры воздуха на высоте 2 м над землей.
Tmax - Максимальная температура - максимум температуры воздуха на высоте 2 м над землей.
R - Количество осадков - Количество выпавших осадков за период времени, мм. При наведении курсора мыши на число - период времени, за который выпало указанное количество осадков.
R24 - Количество осадков - Количество выпавших осадков за 24 часа, мм.
S - Снежный покров - Высота снежного покрова, см. При наведении курсора мыши на число - состояние снежного покрова и степень покрытия местности в баллах.